,,,PA_Meas_PMT16A,,PR_Meas_QMR101_102,,RH_Meas_QMH101,,SR_Meas_QMS101,,TA_Meas_QMH101,,GenWind,,GenWind,
date,time,status,PA,status,PR,status,RH,status,SR,status,TA,status,DirAvg,status,SpdAvg,
2012-11-03, 00:00:04,VALID,1008.83,VALID,0,VALID,104,VALID,0,VALID,23.3628,VALID,352,VALID,0,
2012-11-03, 00:01:04,VALID,1008.83,VALID,0,VALID,104,VALID,0,VALID,23.3628,VALID,352,VALID,0,
2012-11-03, 00:02:04,VALID,1008.81,VALID,0,VALID,104,VALID,0,VALID,23.3433,VALID,352,VALID,0,
2012-11-03, 00:03:04,VALID,1008.8,VALID,0,VALID,104,VALID,0,VALID,23.3433,VALID,352,VALID,0,
2012-11-03, 00:04:04,VALID,1008.77,VALID,0,VALID,104,VALID,0,VALID,23.3238,VALID,352,VALID,0,
2012-11-03, 00:05:04,VALID,1008.78,VALID,0,VALID,104,VALID,0,VALID,23.3043,VALID,352,VALID,0,
2012-11-03, 00:06:04,VALID,1008.76,VALID,0,VALID,104,VALID,0,VALID,23.3043,VALID,352,VALID,0,
2012-11-03, 00:07:04,VALID,1008.73,VALID,0,VALID,104,VALID,0,VALID,23.2848,VALID,352,VALID,0,
2012-11-03, 00:08:04,VALID,1008.73,VALID,0,VALID,104,VALID,0,VALID,23.2848,VALID,352,VALID,0,
2012-11-03, 00:09:04,VALID,1008.7,VALID,0,VALID,104,VALID,0,VALID,23.2848,VALID,352,VALID,0,
2012-11-03, 00:10:04,VALID,1008.68,VALID,0,VALID,104,VALID,0,VALID,23.3238,VALID,352,VALID,0,
2012-11-03, 00:11:04,VALID,1008.69,VALID,0,VALID,104,VALID,0,VALID,23.322,VALID,352,VALID,0,
2012-11-03, 00:12:04,VALID,1008.69,VALID,0,VALID,104,VALID,0,VALID,23.3628,VALID,352,VALID,0,
2012-11-03, 00:13:04,VALID,1008.68,VALID,0,VALID,104,VALID,0,VALID,23.3628,VALID,352,VALID,0,
2012-11-03, 00:14:04,VALID,1008.7,VALID,0,VALID,104,VALID,0,VALID,23.3628,VALID,352,VALID,0,
2012-11-03, 00:15:04,VALID,1008.69,VALID,0,VALID,104,VALID,0,VALID,23.3628,VALID,352,VALID,0,
2012-11-03, 00:16:04,VALID,1008.71,VALID,0,VALID,104,VALID,0.112112,VALID,23.322,VALID,352,VALID,0,
2012-11-03, 00:17:04,VALID,1008.68,VALID,0,VALID,104,VALID,0.112112,VALID,23.3026,VALID,352,VALID,0,
2012-11-03, 00:18:04,VALID,1008.67,VALID,0,VALID,104,VALID,0.112112,VALID,23.3026,VALID,352,VALID,0,
2012-11-03, 00:19:04,VALID,1008.67,VALID,0,VALID,104,VALID,0,VALID,23.3433,VALID,352,VALID,0,
2012-11-03, 00:20:04,VALID,1008.68,VALID,0,VALID,104,VALID,0.112112,VALID,23.3238,VALID,352,VALID,0,
2012-11-03, 00:21:04,VALID,1008.66,VALID,0,VALID,104,VALID,0.112112,VALID,23.322,VALID,352,VALID,0,
2012-11-03, 00:22:04,VALID,1008.65,VALID,0,VALID,104,VALID,0.112112,VALID,23.3026,VALID,352,VALID,0,
2012-11-03, 00:23:04,VALID,1008.64,VALID,0,VALID,104,VALID,0.112112,VALID,23.3026,VALID,352,VALID,0,
2012-11-03, 00:24:04,VALID,1008.62,VALID,0,VALID,104,VALID,0.112112,VALID,23.3026,VALID,352,VALID,0,
2012-11-03, 00:25:04,VALID,1008.63,VALID,0,VALID,104,VALID,0,VALID,23.3433,VALID,352,VALID,0,
2012-11-03, 00:26:04,VALID,1008.64,VALID,0,VALID,104,VALID,0,VALID,23.3415,VALID,352,VALID,0,
2012-11-03, 00:27:04,VALID,1008.63,VALID,0,VALID,104,VALID,0.112112,VALID,23.3628,VALID,352,VALID,0,
2012-11-03, 00:28:04,VALID,1008.63,VALID,0,VALID,104,VALID,0,VALID,23.3415,VALID,352,VALID,0,
2012-11-03, 00:29:04,VALID,1008.62,VALID,0,VALID,104,VALID,0,VALID,23.3415,VALID,352,VALID,0,
2012-11-03, 00:30:04,VALID,1008.6,VALID,0,VALID,104,VALID,0,VALID,23.361,VALID,352,VALID,0,
2012-11-03, 00:31:04,VALID,1008.57,VALID,0,VALID,104,VALID,0,VALID,23.3823,VALID,352,VALID,0,
2012-11-03, 00:32:04,VALID,1008.57,VALID,0,VALID,104,VALID,0,VALID,23.4017,VALID,352,VALID,0,
2012-11-03, 00:33:04,VALID,1008.53,VALID,0,VALID,104,VALID,0,VALID,23.4017,VALID,352,VALID,0,
2012-11-03, 00:34:04,VALID,1008.53,VALID,0,VALID,104,VALID,0.112112,VALID,23.3823,VALID,352,VALID,0,
2012-11-03, 00:35:04,VALID,1008.47,VALID,0,VALID,104,VALID,0,VALID,23.4017,VALID,352,VALID,0,
2012-11-03, 00:36:04,VALID,1008.47,VALID,0,VALID,104,VALID,0.112112,VALID,23.3823,VALID,352,VALID,0,
2012-11-03, 00:37:04,VALID,1008.44,VALID,0,VALID,104,VALID,0,VALID,23.3823,VALID,352,VALID,0,
2012-11-03, 00:38:04,VALID,1008.43,VALID,0,VALID,104,VALID,0.112112,VALID,23.322,VALID,352,VALID,0,
2012-11-03, 00:39:04,VALID,1008.44,VALID,0,VALID,104,VALID,0,VALID,23.322,VALID,352,VALID,0,
2012-11-03, 00:40:04,VALID,1008.42,VALID,0,VALID,104,VALID,0.112112,VALID,23.3238,VALID,352,VALID,0,
2012-11-03, 00:41:04,VALID,1008.45,VALID,0,VALID,104,VALID,0.112112,VALID,23.3238,VALID,352,VALID,0,
2012-11-03, 00:42:04,VALID,1008.43,VALID,0,VALID,104,VALID,0,VALID,23.3043,VALID,352,VALID,0,
2012-11-03, 00:43:04,VALID,1008.44,VALID,0,VALID,104,VALID,0.112112,VALID,23.3043,VALID,352,VALID,0,
2012-11-03, 00:44:04,VALID,1008.44,VALID,0,VALID,104,VALID,0,VALID,23.3043,VALID,352,VALID,0,
2012-11-03, 00:45:04,VALID,1008.44,VALID,0,VALID,104,VALID,0.112112,VALID,23.3238,VALID,352,VALID,0,
2012-11-03, 00:46:04,VALID,1008.41,VALID,0,VALID,104,VALID,0.112112,VALID,23.3238,VALID,352,VALID,0,
2012-11-03, 00:47:04,VALID,1008.45,VALID,0,VALID,104,VALID,0.112112,VALID,23.3238,VALID,352,VALID,0,
2012-11-03, 00:48:04,VALID,1008.43,VALID,0,VALID,104,VALID,0.112112,VALID,23.3433,VALID,352,VALID,0,
2012-11-03, 00:49:04,VALID,1008.45,VALID,0,VALID,104,VALID,0.112112,VALID,23.3238,VALID,352,VALID,0,
2012-11-03, 00:50:04,VALID,1008.43,VALID,0,VALID,104,VALID,0,VALID,23.3238,VALID,352,VALID,0,
2012-11-03, 00:51:04,VALID,1008.41,VALID,0,VALID,104,VALID,0.112112,VALID,23.3026,VALID,352,VALID,0,
2012-11-03, 00:52:04,VALID,1008.38,VALID,0,VALID,104,VALID,0.112112,VALID,23.322,VALID,352,VALID,0,
2012-11-03, 00:53:04,VALID,1008.39,VALID,0,VALID,104,VALID,0.112112,VALID,23.3043,VALID,352,VALID,0,
2012-11-03, 00:54:04,VALID,1008.39,VALID,0,VALID,104,VALID,0,VALID,23.3238,VALID,352,VALID,0,
2012-11-03, 00:55:04,VALID,1008.41,VALID,0,VALID,104,VALID,0.112112,VALID,23.3238,VALID,352,VALID,0,
2012-11-03, 00:56:04,VALID,1008.41,VALID,0,VALID,104,VALID,0,VALID,23.3238,VALID,352,VALID,0,
2012-11-03, 00:57:04,VALID,1008.39,VALID,0,VALID,104,VALID,0,VALID,23.3238,VALID,352,VALID,0,
2012-11-03, 00:58:04,VALID,1008.39,VALID,0,VALID,104,VALID,0,VALID,23.3026,VALID,352,VALID,0,
2012-11-03, 00:59:04,VALID,1008.41,VALID,0,VALID,104,VALID,0,VALID,23.3026,VALID,352,VALID,0,
2012-11-03, 01:00:04,VALID,1008.4,VALID,0,VALID,104,VALID,0,VALID,23.3238,VALID,352,VALID,0,
2012-11-03, 01:01:04,VALID,1008.39,VALID,0,VALID,104,VALID,0,VALID,23.3238,VALID,352,VALID,0,
2012-11-03, 01:02:05,VALID,1008.4,VALID,0,VALID,104,VALID,0.112112,VALID,23.3238,VALID,352,VALID,0,
2012-11-03, 01:03:05,VALID,1008.39,VALID,0,VALID,104,VALID,0.112112,VALID,23.3026,VALID,352,VALID,0,
2012-11-03, 01:04:05,VALID,1008.39,VALID,0,VALID,104,VALID,0,VALID,23.3026,VALID,352,VALID,0,
2012-11-03, 01:05:05,VALID,1008.42,VALID,0,VALID,104,VALID,0.112112,VALID,23.3043,VALID,352,VALID,0,
2012-11-03, 01:06:05,VALID,1008.42,VALID,0,VALID,104,VALID,0.112112,VALID,23.2831,VALID,352,VALID,0,
2012-11-03, 01:07:05,VALID,1008.43,VALID,0,VALID,104,VALID,0,VALID,23.3043,VALID,352,VALID,0,
2012-11-03, 01:08:05,VALID,1008.43,VALID,0,VALID,104,VALID,0.112112,VALID,23.2654,VALID,352,VALID,0,
2012-11-03, 01:09:05,VALID,1008.41,VALID,0,VALID,104,VALID,0,VALID,23.2459,VALID,352,VALID,0,
2012-11-03, 01:10:05,VALID,1008.44,VALID,0,VALID,104,VALID,0.112112,VALID,23.2264,VALID,352,VALID,0,
2012-11-03, 01:11:05,VALID,1008.48,VALID,0,VALID,104,VALID,0,VALID,23.1874,VALID,352,VALID,0,
2012-11-03, 01:12:05,VALID,1008.47,VALID,0,VALID,104,VALID,0,VALID,23.1874,VALID,352,VALID,0,
2012-11-03, 01:13:05,VALID,1008.49,VALID,0,VALID,104,VALID,0.112112,VALID,23.1874,VALID,352,VALID,0,
2012-11-03, 01:14:05,VALID,1008.51,VALID,0,VALID,104,VALID,0.112112,VALID,23.1679,VALID,352,VALID,0,
2012-11-03, 01:15:05,VALID,1008.52,VALID,0,VALID,104,VALID,0.112112,VALID,23.1662,VALID,352,VALID,0,
2012-11-03, 01:16:05,VALID,1008.55,VALID,0,VALID,104,VALID,0,VALID,23.1679,VALID,352,VALID,0,
2012-11-03, 01:17:05,VALID,1008.57,VALID,0,VALID,104,VALID,0,VALID,23.1485,VALID,352,VALID,0,
2012-11-03, 01:18:05,VALID,1008.53,VALID,0,VALID,104,VALID,0,VALID,23.1467,VALID,352,VALID,0,
2012-11-03, 01:19:05,VALID,1008.53,VALID,0,VALID,104,VALID,0.112112,VALID,23.1874,VALID,352,VALID,0,
2012-11-03, 01:20:05,VALID,1008.52,VALID,0,VALID,104,VALID,0,VALID,23.2069,VALID,352,VALID,0,
2012-11-03, 01:21:05,VALID,1008.51,VALID,0,VALID,104,VALID,0.112112,VALID,23.2654,VALID,352,VALID,0.389062,
2012-11-03, 01:22:05,VALID,1008.49,VALID,0,VALID,104,VALID,0.112112,VALID,23.2654,VALID,352,VALID,0,
2012-11-03, 01:23:05,VALID,1008.49,VALID,0,VALID,104,VALID,0,VALID,23.2654,VALID,352,VALID,0,
2012-11-03, 01:24:05,VALID,1008.5,VALID,0,VALID,104,VALID,0,VALID,23.2441,VALID,352,VALID,0,
2012-11-03, 01:25:05,VALID,1008.49,VALID,0,VALID,104,VALID,0,VALID,23.2654,VALID,352,VALID,0,
2012-11-03, 01:26:05,VALID,1008.48,VALID,0,VALID,104,VALID,0,VALID,23.2459,VALID,352,VALID,0,
2012-11-03, 01:27:05,VALID,1008.51,VALID,0,VALID,104,VALID,0,VALID,23.2459,VALID,352,VALID,0,
2012-11-03, 01:28:05,VALID,1008.49,VALID,0,VALID,104,VALID,0,VALID,23.2264,VALID,352,VALID,0,
2012-11-03, 01:29:05,VALID,1008.48,VALID,0,VALID,104,VALID,0,VALID,23.2264,VALID,352,VALID,0,
2012-11-03, 01:30:05,VALID,1008.51,VALID,0,VALID,104,VALID,0,VALID,23.2264,VALID,352,VALID,0,
2012-11-03, 01:31:05,VALID,1008.5,VALID,0,VALID,104,VALID,0,VALID,23.2264,VALID,352,VALID,0,
2012-11-03, 01:32:05,VALID,1008.49,VALID,0,VALID,104,VALID,0,VALID,23.2051,VALID,352,VALID,0,
2012-11-03, 01:33:05,VALID,1008.52,VALID,0,VALID,104,VALID,0,VALID,23.2069,VALID,352,VALID,0,
2012-11-03, 01:34:05,VALID,1008.52,VALID,0,VALID,104,VALID,0,VALID,23.2069,VALID,352,VALID,0,
2012-11-03, 01:35:05,VALID,1008.5,VALID,0,VALID,104,VALID,0,VALID,23.2069,VALID,352,VALID,0,
2012-11-03, 01:36:05,VALID,1008.51,VALID,0,VALID,104,VALID,0,VALID,23.1662,VALID,352,VALID,0,
2012-11-03, 01:37:05,VALID,1008.5,VALID,0,VALID,104,VALID,0.112112,VALID,23.1874,VALID,352,VALID,0,
2012-11-03, 01:38:05,VALID,1008.5,VALID,0,VALID,104,VALID,0.112112,VALID,23.1467,VALID,352,VALID,0,
2012-11-03, 01:39:05,VALID,1008.5,VALID,0,VALID,104,VALID,0,VALID,23.1679,VALID,352,VALID,0,
2012-11-03, 01:40:05,VALID,1008.46,VALID,0,VALID,104,VALID,0,VALID,23.1485,VALID,352,VALID,0,
2012-11-03, 01:41:05,VALID,1008.49,VALID,0,VALID,104,VALID,0,VALID,23.1485,VALID,352,VALID,0,
2012-11-03, 01:42:05,VALID,1008.47,VALID,0,VALID,104,VALID,0,VALID,23.129,VALID,352,VALID,0,
2012-11-03, 01:43:05,VALID,1008.44,VALID,0,VALID,104,VALID,0,VALID,23.1095,VALID,352,VALID,0,
2012-11-03, 01:44:05,VALID,1008.43,VALID,0,VALID,104,VALID,0,VALID,23.1095,VALID,352,VALID,0,
2012-11-03, 01:45:05,VALID,1008.41,VALID,0,VALID,104,VALID,0,VALID,23.1095,VALID,352,VALID,0,
2012-11-03, 01:46:05,VALID,1008.45,VALID,0,VALID,104,VALID,0.112112,VALID,23.129,VALID,352,VALID,0,
2012-11-03, 01:47:05,VALID,1008.45,VALID,0,VALID,104,VALID,0,VALID,23.129,VALID,352,VALID,0,
2012-11-03, 01:48:05,VALID,1008.45,VALID,0,VALID,104,VALID,0,VALID,23.129,VALID,352,VALID,0,
2012-11-03, 01:49:05,VALID,1008.46,VALID,0,VALID,104,VALID,0,VALID,23.129,VALID,352,VALID,0,
2012-11-03, 01:50:05,VALID,1008.5,VALID,0,VALID,104,VALID,0,VALID,23.09,VALID,352,VALID,0,
2012-11-03, 01:51:05,VALID,1008.49,VALID,0,VALID,104,VALID,0,VALID,23.0705,VALID,352,VALID,0,
2012-11-03, 01:52:05,VALID,1008.48,VALID,0,VALID,104,VALID,0,VALID,23.0705,VALID,352,VALID,0,
2012-11-03, 01:53:05,VALID,1008.47,VALID,0,VALID,104,VALID,0.112112,VALID,23.0511,VALID,352,VALID,0,
2012-11-03, 01:54:05,VALID,1008.47,VALID,0,VALID,104,VALID,0,VALID,23.0511,VALID,352,VALID,0,
2012-11-03, 01:55:05,VALID,1008.49,VALID,0,VALID,104,VALID,0.112112,VALID,23.0705,VALID,352,VALID,0,
2012-11-03, 01:56:05,VALID,1008.51,VALID,0,VALID,104,VALID,0,VALID,23.0511,VALID,352,VALID,0,
2012-11-03, 01:57:05,VALID,1008.52,VALID,0,VALID,104,VALID,0,VALID,23.0316,VALID,352,VALID,0,
2012-11-03, 01:58:05,VALID,1008.5,VALID,0,VALID,104,VALID,0,VALID,23.0316,VALID,352,VALID,0,
2012-11-03, 01:59:05,VALID,1008.5,VALID,0,VALID,104,VALID,0,VALID,23.0316,VALID,352,VALID,0,
2012-11-03, 02:00:05,VALID,1008.49,VALID,0,VALID,104,VALID,0,VALID,23.0511,VALID,352,VALID,0,
2012-11-03, 02:01:05,VALID,1008.49,VALID,0,VALID,104,VALID,0,VALID,23.0705,VALID,352,VALID,0,
2012-11-03, 02:02:05,VALID,1008.49,VALID,0,VALID,104,VALID,0,VALID,23.09,VALID,352,VALID,0,
2012-11-03, 02:03:05,VALID,1008.47,VALID,0,VALID,104,VALID,0,VALID,23.09,VALID,352,VALID,0,
2012-11-03, 02:04:05,VALID,1008.47,VALID,0,VALID,104,VALID,0,VALID,23.09,VALID,352,VALID,0,
2012-11-03, 02:05:05,VALID,1008.44,VALID,0,VALID,104,VALID,0,VALID,23.09,VALID,352,VALID,0,
2012-11-03, 02:06:05,VALID,1008.45,VALID,0,VALID,104,VALID,0,VALID,23.0705,VALID,352,VALID,0,
2012-11-03, 02:07:05,VALID,1008.46,VALID,0,VALID,104,VALID,0,VALID,23.1095,VALID,352,VALID,0,
2012-11-03, 02:08:05,VALID,1008.45,VALID,0,VALID,104,VALID,0,VALID,23.1307,VALID,352,VALID,0,
2012-11-03, 02:09:05,VALID,1008.46,VALID,0,VALID,104,VALID,0.112112,VALID,23.1095,VALID,352,VALID,0,
2012-11-03, 02:10:05,VALID,1008.44,VALID,0,VALID,104,VALID,0,VALID,23.09,VALID,352,VALID,0,
2012-11-03, 02:11:05,VALID,1008.46,VALID,0,VALID,104,VALID,0,VALID,23.09,VALID,352,VALID,0,
2012-11-03, 02:12:05,VALID,1008.45,VALID,0,VALID,104,VALID,0,VALID,23.0918,VALID,352,VALID,0,
2012-11-03, 02:13:05,VALID,1008.47,VALID,0,VALID,104,VALID,0.112112,VALID,23.0705,VALID,352,VALID,0,
2012-11-03, 02:14:05,VALID,1008.43,VALID,0,VALID,104,VALID,0,VALID,23.0705,VALID,352,VALID,0,
2012-11-03, 02:15:05,VALID,1008.45,VALID,0,VALID,104,VALID,0,VALID,23.0705,VALID,352,VALID,0,
2012-11-03, 02:16:05,VALID,1008.44,VALID,0,VALID,104,VALID,0.112112,VALID,23.0705,VALID,352,VALID,0,
2012-11-03, 02:17:05,VALID,1008.44,VALID,0,VALID,104,VALID,0,VALID,23.0511,VALID,352,VALID,0,
2012-11-03, 02:18:05,VALID,1008.44,VALID,0,VALID,104,VALID,0,VALID,23.09,VALID,352,VALID,0,
2012-11-03, 02:19:05,VALID,1008.43,VALID,0,VALID,104,VALID,0,VALID,23.0493,VALID,352,VALID,0,
2012-11-03, 02:20:05,VALID,1008.45,VALID,0,VALID,104,VALID,0,VALID,23.0705,VALID,352,VALID,0,
2012-11-03, 02:21:05,VALID,1008.45,VALID,0,VALID,104,VALID,0,VALID,23.0705,VALID,352,VALID,0,
2012-11-03, 02:22:05,VALID,1008.43,VALID,0,VALID,104,VALID,0.112112,VALID,23.0511,VALID,352,VALID,0,
2012-11-03, 02:23:05,VALID,1008.41,VALID,0,VALID,104,VALID,0,VALID,23.0511,VALID,352,VALID,0,
2012-11-03, 02:24:05,VALID,1008.41,VALID,0,VALID,104,VALID,0,VALID,23.0511,VALID,352,VALID,0,
2012-11-03, 02:25:05,VALID,1008.39,VALID,0,VALID,104,VALID,0,VALID,23.0511,VALID,352,VALID,0,
2012-11-03, 02:26:05,VALID,1008.4,VALID,0,VALID,104,VALID,0,VALID,23.0316,VALID,352,VALID,0,
2012-11-03, 02:27:05,VALID,1008.35,VALID,0,VALID,104,VALID,0,VALID,23.0511,VALID,352,VALID,0,
2012-11-03, 02:28:05,VALID,1008.37,VALID,0,VALID,104,VALID,0,VALID,23.0511,VALID,352,VALID,0,
2012-11-03, 02:29:05,VALID,1008.37,VALID,0,VALID,104,VALID,0,VALID,23.0705,VALID,352,VALID,0,
2012-11-03, 02:30:05,VALID,1008.38,VALID,0,VALID,104,VALID,0,VALID,23.0511,VALID,352,VALID,0,
2012-11-03, 02:31:05,VALID,1008.36,VALID,0,VALID,104,VALID,0,VALID,23.0705,VALID,352,VALID,0,
2012-11-03, 02:32:05,VALID,1008.38,VALID,0,VALID,104,VALID,0,VALID,23.09,VALID,352,VALID,0,
2012-11-03, 02:33:05,VALID,1008.37,VALID,0,VALID,104,VALID,0,VALID,23.09,VALID,352,VALID,0,
2012-11-03, 02:34:05,VALID,1008.37,VALID,0,VALID,104,VALID,0,VALID,23.09,VALID,352,VALID,0,
2012-11-03, 02:35:05,VALID,1008.34,VALID,0,VALID,104,VALID,0,VALID,23.09,VALID,352,VALID,0,
2012-11-03, 02:36:05,VALID,1008.36,VALID,0,VALID,104,VALID,0,VALID,23.0705,VALID,352,VALID,0,
2012-11-03, 02:37:05,VALID,1008.35,VALID,0,VALID,104,VALID,0,VALID,23.09,VALID,352,VALID,0,
2012-11-03, 02:38:05,VALID,1008.36,VALID,0,VALID,104,VALID,0,VALID,23.09,VALID,352,VALID,0,
2012-11-03, 02:39:05,VALID,1008.35,VALID,0,VALID,104,VALID,0,VALID,23.1077,VALID,352,VALID,0,
2012-11-03, 02:40:05,VALID,1008.35,VALID,0,VALID,104,VALID,0.112112,VALID,23.1485,VALID,352,VALID,0,
2012-11-03, 02:41:05,VALID,1008.35,VALID,0,VALID,104,VALID,0,VALID,23.1272,VALID,352,VALID,0,
2012-11-03, 02:42:05,VALID,1008.4,VALID,0,VALID,104,VALID,0,VALID,23.1679,VALID,352,VALID,0,
2012-11-03, 02:43:05,VALID,1008.38,VALID,0,VALID,104,VALID,0,VALID,23.1874,VALID,352,VALID,0,
2012-11-03, 02:44:05,VALID,1008.4,VALID,0,VALID,104,VALID,0,VALID,23.1874,VALID,352,VALID,0.0570313,
2012-11-03, 02:45:05,VALID,1008.38,VALID,0,VALID,104,VALID,0,VALID,23.1874,VALID,355,VALID,0,
2012-11-03, 02:46:05,VALID,1008.43,VALID,0,VALID,104,VALID,0.112112,VALID,23.1874,VALID,355,VALID,0,
2012-11-03, 02:47:05,VALID,1008.41,VALID,0,VALID,104,VALID,0,VALID,23.2069,VALID,355,VALID,0,
2012-11-03, 02:48:05,VALID,1008.4,VALID,0,VALID,104,VALID,0,VALID,23.2264,VALID,2,VALID,0,
2012-11-03, 02:49:05,VALID,1008.42,VALID,0,VALID,104,VALID,0,VALID,23.2246,VALID,51,VALID,0.171094,
2012-11-03, 02:50:05,VALID,1008.44,VALID,0,VALID,104,VALID,0,VALID,23.2246,VALID,41,VALID,0.586328,
2012-11-03, 02:51:05,VALID,1008.45,VALID,0,VALID,104,VALID,0,VALID,23.2654,VALID,41,VALID,0,
2012-11-03, 02:52:05,VALID,1008.42,VALID,0,VALID,104,VALID,0,VALID,23.2654,VALID,41,VALID,0,
2012-11-03, 02:53:05,VALID,1008.44,VALID,0,VALID,104,VALID,0,VALID,23.2848,VALID,41,VALID,0,
2012-11-03, 02:54:05,VALID,1008.44,VALID,0,VALID,104,VALID,0,VALID,23.3043,VALID,31,VALID,0,
2012-11-03, 02:55:05,VALID,1008.4,VALID,0,VALID,104,VALID,0,VALID,23.3043,VALID,35,VALID,0.209375,
2012-11-03, 02:56:05,VALID,1008.43,VALID,0,VALID,104,VALID,0,VALID,23.3043,VALID,35,VALID,0,
2012-11-03, 02:57:05,VALID,1008.45,VALID,0,VALID,104,VALID,0.112112,VALID,23.322,VALID,46,VALID,0.290234,
2012-11-03, 02:58:05,VALID,1008.44,VALID,0,VALID,104,VALID,0,VALID,23.3238,VALID,50,VALID,0.0839844,
2012-11-03, 02:59:05,VALID,1008.45,VALID,0,VALID,104,VALID,0,VALID,23.3433,VALID,42,VALID,0.0132813,
2012-11-03, 03:00:05,VALID,1008.44,VALID,0,VALID,104,VALID,0,VALID,23.3433,VALID,42,VALID,0.141797,
2012-11-03, 03:01:05,VALID,1008.46,VALID,0,VALID,104,VALID,0,VALID,23.4017,VALID,43,VALID,0.0976563,
2012-11-03, 03:02:05,VALID,1008.44,VALID,0,VALID,104,VALID,0,VALID,23.3823,VALID,42,VALID,0,
2012-11-03, 03:03:05,VALID,1008.45,VALID,0,VALID,104,VALID,0,VALID,23.3823,VALID,43,VALID,0.0015625,
2012-11-03, 03:04:05,VALID,1008.44,VALID,0,VALID,104,VALID,0,VALID,23.4017,VALID,43,VALID,0,
2012-11-03, 03:05:05,VALID,1008.44,VALID,0,VALID,104,VALID,0,VALID,23.4212,VALID,43,VALID,0,
2012-11-03, 03:06:05,VALID,1008.42,VALID,0,VALID,104,VALID,0,VALID,23.4,VALID,43,VALID,0,
2012-11-03, 03:07:05,VALID,1008.45,VALID,0,VALID,104,VALID,0.112112,VALID,23.4407,VALID,43,VALID,0,
2012-11-03, 03:08:05,VALID,1008.45,VALID,0,VALID,104,VALID,0,VALID,23.4602,VALID,43,VALID,0,
2012-11-03, 03:09:05,VALID,1008.43,VALID,0,VALID,104,VALID,0,VALID,23.4407,VALID,43,VALID,0,
2012-11-03, 03:10:05,VALID,1008.45,VALID,0,VALID,104,VALID,0,VALID,23.4407,VALID,43,VALID,0,
2012-11-03, 03:11:05,VALID,1008.42,VALID,0,VALID,104,VALID,0,VALID,23.4602,VALID,43,VALID,0,
2012-11-03, 03:12:05,VALID,1008.41,VALID,0,VALID,104,VALID,0,VALID,23.4602,VALID,43,VALID,0,
2012-11-03, 03:13:05,VALID,1008.42,VALID,0,VALID,104,VALID,0,VALID,23.4602,VALID,43,VALID,0,
2012-11-03, 03:14:05,VALID,1008.42,VALID,0,VALID,104,VALID,0,VALID,23.4602,VALID,43,VALID,0,
2012-11-03, 03:15:05,VALID,1008.43,VALID,0,VALID,104,VALID,0,VALID,23.4797,VALID,43,VALID,0,
2012-11-03, 03:16:05,VALID,1008.44,VALID,0,VALID,104,VALID,0,VALID,23.4584,VALID,43,VALID,0,
2012-11-03, 03:17:05,VALID,1008.43,VALID,0,VALID,104,VALID,0,VALID,23.4797,VALID,43,VALID,0,
2012-11-03, 03:18:05,VALID,1008.47,VALID,0,VALID,104,VALID,0,VALID,23.4992,VALID,43,VALID,0,
2012-11-03, 03:19:05,VALID,1008.47,VALID,0,VALID,104,VALID,0,VALID,23.4992,VALID,43,VALID,0,
2012-11-03, 03:20:05,VALID,1008.5,VALID,0,VALID,104,VALID,0,VALID,23.5186,VALID,62,VALID,0.107813,
2012-11-03, 03:21:05,VALID,1008.54,VALID,0,VALID,104,VALID,0,VALID,23.5186,VALID,62,VALID,0,
2012-11-03, 03:22:05,VALID,1008.54,VALID,0,VALID,104,VALID,0,VALID,23.5381,VALID,62,VALID,0.46875,
2012-11-03, 03:23:05,VALID,1008.55,VALID,0,VALID,104,VALID,0,VALID,23.5381,VALID,62,VALID,0.00585938,
2012-11-03, 03:24:05,VALID,1008.55,VALID,0,VALID,104,VALID,0,VALID,23.5576,VALID,62,VALID,0.401563,
2012-11-03, 03:25:05,VALID,1008.57,VALID,0,VALID,104,VALID,0,VALID,23.5576,VALID,62,VALID,0.25,
2012-11-03, 03:26:05,VALID,1008.58,VALID,0,VALID,104,VALID,0,VALID,23.5576,VALID,61,VALID,0,
2012-11-03, 03:27:05,VALID,1008.59,VALID,0,VALID,104,VALID,0,VALID,23.5594,VALID,62,VALID,0,
2012-11-03, 03:28:05,VALID,1008.58,VALID,0,VALID,104,VALID,0,VALID,23.5381,VALID,62,VALID,0,
2012-11-03, 03:29:05,VALID,1008.57,VALID,0,VALID,104,VALID,0,VALID,23.5381,VALID,62,VALID,0,
2012-11-03, 03:30:05,VALID,1008.56,VALID,0,VALID,104,VALID,0,VALID,23.5381,VALID,62,VALID,0,
2012-11-03, 03:31:05,VALID,1008.56,VALID,0,VALID,104,VALID,0,VALID,23.5169,VALID,61,VALID,0,
2012-11-03, 03:32:05,VALID,1008.6,VALID,0,VALID,104,VALID,0,VALID,23.5186,VALID,62,VALID,0,
2012-11-03, 03:33:05,VALID,1008.6,VALID,0,VALID,104,VALID,0,VALID,23.5381,VALID,62,VALID,0,
2012-11-03, 03:34:05,VALID,1008.6,VALID,0,VALID,104,VALID,0,VALID,23.4992,VALID,59,VALID,0,
2012-11-03, 03:35:05,VALID,1008.62,VALID,0,VALID,104,VALID,0,VALID,23.5186,VALID,59,VALID,0,
2012-11-03, 03:36:05,VALID,1008.63,VALID,0,VALID,104,VALID,0,VALID,23.5381,VALID,60,VALID,0,
2012-11-03, 03:37:05,VALID,1008.62,VALID,0,VALID,104,VALID,0,VALID,23.5186,VALID,77,VALID,0.564062,
2012-11-03, 03:38:05,VALID,1008.64,VALID,0,VALID,104,VALID,0,VALID,23.5186,VALID,83,VALID,0.7375,
2012-11-03, 03:39:05,VALID,1008.63,VALID,0,VALID,104,VALID,0.112112,VALID,23.4797,VALID,83,VALID,0.602344,
2012-11-03, 03:40:05,VALID,1008.66,VALID,0,VALID,104,VALID,0,VALID,23.4797,VALID,83,VALID,0.519922,
2012-11-03, 03:41:05,VALID,1008.67,VALID,0,VALID,104,VALID,0,VALID,23.4797,VALID,83,VALID,0,
2012-11-03, 03:42:05,VALID,1008.65,VALID,0,VALID,104,VALID,0,VALID,23.4797,VALID,83,VALID,0,
2012-11-03, 03:43:04,VALID,1008.63,VALID,0,VALID,104,VALID,0,VALID,23.4602,VALID,83,VALID,0,
2012-11-03, 03:44:04,VALID,1008.66,VALID,0,VALID,104,VALID,0,VALID,23.4389,VALID,83,VALID,0,
2012-11-03, 03:45:04,VALID,1008.64,VALID,0,VALID,104,VALID,0,VALID,23.4602,VALID,83,VALID,0,
2012-11-03, 03:46:04,VALID,1008.63,VALID,0,VALID,104,VALID,0,VALID,23.4797,VALID,83,VALID,0,
2012-11-03, 03:47:04,VALID,1008.63,VALID,0,VALID,104,VALID,0,VALID,23.4602,VALID,83,VALID,0,
2012-11-03, 03:48:04,VALID,1008.65,VALID,0,VALID,104,VALID,0,VALID,23.462,VALID,83,VALID,0,
2012-11-03, 03:49:04,VALID,1008.65,VALID,0,VALID,104,VALID,0,VALID,23.4602,VALID,83,VALID,0,
2012-11-03, 03:50:04,VALID,1008.65,VALID,0,VALID,104,VALID,0,VALID,23.4602,VALID,83,VALID,0,
2012-11-03, 03:51:04,VALID,1008.67,VALID,0,VALID,104,VALID,0,VALID,23.4602,VALID,83,VALID,0,
2012-11-03, 03:52:04,VALID,1008.68,VALID,0,VALID,104,VALID,0,VALID,23.4389,VALID,83,VALID,0,
2012-11-03, 03:53:04,VALID,1008.7,VALID,0,VALID,104,VALID,0,VALID,23.4407,VALID,83,VALID,0,
2012-11-03, 03:54:04,VALID,1008.7,VALID,0,VALID,104,VALID,0,VALID,23.4602,VALID,77,VALID,0.680078,
2012-11-03, 03:55:04,VALID,1008.7,VALID,0,VALID,104,VALID,0,VALID,23.4602,VALID,75,VALID,0.466406,
2012-11-03, 03:56:04,VALID,1008.68,VALID,0,VALID,104,VALID,0,VALID,23.4602,VALID,75,VALID,0.00546875,
2012-11-03, 03:57:04,VALID,1008.69,VALID,0,VALID,104,VALID,0,VALID,23.4602,VALID,75,VALID,0.310937,
2012-11-03, 03:58:04,VALID,1008.68,VALID,0,VALID,104,VALID,0,VALID,23.4602,VALID,75,VALID,0.731641,
2012-11-03, 03:59:04,VALID,1008.67,VALID,0,VALID,104,VALID,0,VALID,23.4602,VALID,84,VALID,0.376172,
2012-11-03, 04:00:04,VALID,1008.68,VALID,0,VALID,104,VALID,0,VALID,23.4602,VALID,84,VALID,0,
2012-11-03, 04:01:04,VALID,1008.68,VALID,0,VALID,104,VALID,0,VALID,23.4602,VALID,84,VALID,0,
2012-11-03, 04:02:04,VALID,1008.67,VALID,0,VALID,104,VALID,0,VALID,23.4407,VALID,80,VALID,0,
2012-11-03, 04:03:04,VALID,1008.69,VALID,0,VALID,104,VALID,0,VALID,23.4194,VALID,69,VALID,0.387891,
2012-11-03, 04:04:04,VALID,1008.72,VALID,0,VALID,104,VALID,0,VALID,23.4212,VALID,69,VALID,0.684375,
2012-11-03, 04:05:04,VALID,1008.71,VALID,0,VALID,104,VALID,0,VALID,23.4017,VALID,69,VALID,0.090625,